Weather History for Paris, IL

Change the Weather History Date:

Thursday, December 26, 2013

  Actual Average (KHUF) Record (KHUF)
Temperature  
Mean Temperature 30 °F 29 °F  
Max Temperature 38 °F 37 °F 63 °F (1982)
Min Temperature 22 °F 21 °F -5 °F (1980)
Degree Days  
Heating Degree Days 35 36  
Month to date heating degree days 853  
Since 1 July heating degree days 1931  
Cooling Degree Days 0 0  
Month to date cooling degree days 0  
Year to date cooling degree days 993  
Moisture  
Dew Point 25 °F    
Average Humidity 79    
Maximum Humidity 92    
Minimum Humidity 64    
Precipitation  
Precipitation 0.00 in 0.12 in 0.78 in (1957)
Month to date precipitation 2.44  
Year to date precipitation 44.55  
Sea Level Pressure  
Sea Level Pressure 30.30 in    
Wind  
Wind Speed 9 mph (SW)    
Max Wind Speed 17 mph    
Max Gust Speed 23 mph    
Visibility 10 miles    
Events      
T = Trace of Precipitation, MM = Missing Value Source: NWS Daily Summary

Daily Weather History Graph

Daily Weather History Graph

Search for Another Location

Airport:

Trip Planner

Search our weather history database for the weather conditions in past years. The results will help you decide how hot, cold, wet, or windy it might be!

Date:

Astronomy

Dec. 26, 2013 Rise Set
Actual Time 7:10 AM CST 4:32 PM CST
Civil Twilight 6:39 AM CST 5:03 PM CST
Nautical Twilight 6:06 AM CST 5:36 PM CST
Astronomical Twilight 5:33 AM CST 6:09 PM CST
Moon 12:39 AM CST (12/26) 12:07 PM CST (12/26)
Length of Visible Light 10h 23m
Length of Day
9h 22m
Last Quarter, 38% of the Moon is Illuminated
Dec 26
Last Quarter
Jan 1
New
Jan 7
First Quarter
Jan 15
Full
Jan 23
Last Quarter

Hourly Weather History & Observations

Time (CST) Temp. Windchill Dew Point Humidity Pressure Visibility Wind Dir Wind Speed Gust Speed Precip Events Conditions
12:15 AM 31.8 °F 22.3 °F 28.2 °F 87% 30.21 in 10.0 mi West 12.7 mph 21.9 mph N/A   Overcast
12:35 AM 30.6 °F 21.2 °F 27.1 °F 87% 30.22 in 10.0 mi West 11.5 mph - N/A   Mostly Cloudy
12:55 AM 30.6 °F 21.2 °F 27.5 °F 88% 30.22 in 10.0 mi West 11.5 mph - N/A   Overcast
1:15 AM 30.9 °F 22.2 °F 27.9 °F 88% 30.22 in 7.0 mi West 10.4 mph - N/A   Overcast
1:35 AM 30.4 °F 22.2 °F 27.1 °F 88% 30.22 in 10.0 mi West 9.2 mph - N/A   Mostly Cloudy
1:55 AM 30.2 °F 21.3 °F 27.3 °F 89% 30.23 in 7.0 mi West 10.4 mph - N/A   Mostly Cloudy
2:15 AM 30.2 °F 19.8 °F 27.1 °F 88% 30.24 in 10.0 mi West 13.8 mph 18.4 mph N/A   Overcast
2:35 AM 30.2 °F 20.8 °F 27.1 °F 88% 30.26 in 10.0 mi West 11.5 mph 17.3 mph N/A   Overcast
2:55 AM 30.2 °F 19.8 °F 26.4 °F 86% 30.26 in 10.0 mi WNW 13.8 mph - N/A   Mostly Cloudy
3:15 AM 29.3 °F 20.8 °F 25.3 °F 85% 30.26 in 10.0 mi WNW 9.2 mph - N/A   Scattered Clouds
3:35 AM 29.1 °F 22.1 °F 25.3 °F 86% 30.27 in 10.0 mi WNW 6.9 mph - N/A   Overcast
3:55 AM 28.4 °F 21.2 °F 25.3 °F 88% 30.27 in 10.0 mi WNW 6.9 mph - N/A   Overcast
4:15 AM 28.0 °F 20.8 °F 24.4 °F 86% 30.28 in 10.0 mi WNW 6.9 mph - N/A   Overcast
4:35 AM 27.5 °F 20.2 °F 23.4 °F 84% 30.29 in 10.0 mi NW 6.9 mph - N/A   Overcast
4:55 AM 27.5 °F 20.2 °F 23.0 °F 83% 30.29 in 10.0 mi WNW 6.9 mph - N/A   Overcast
5:15 AM 26.2 °F 22.1 °F 22.1 °F 84% 30.29 in 10.0 mi WNW 3.5 mph - N/A   Mostly Cloudy
5:35 AM 24.6 °F - 21.4 °F 87% 30.29 in 10.0 mi Calm Calm - N/A   Scattered Clouds
5:55 AM 22.8 °F - 20.1 °F 89% 30.29 in 10.0 mi Calm Calm - N/A   Clear
6:15 AM 22.1 °F - 19.8 °F 91% 30.30 in 10.0 mi Calm Calm - N/A   Clear
6:35 AM 22.8 °F 18.2 °F 20.8 °F 92% 30.31 in 10.0 mi West 3.5 mph - N/A   Mostly Cloudy
6:55 AM 24.6 °F 17.7 °F 22.3 °F 91% 30.32 in 10.0 mi West 5.8 mph - N/A   Overcast
7:15 AM 24.8 °F 19.1 °F 22.1 °F 89% 30.32 in 10.0 mi West 4.6 mph - N/A   Overcast
7:35 AM 24.8 °F 20.5 °F 22.1 °F 89% 30.33 in 10.0 mi West 3.5 mph - N/A   Overcast
7:55 AM 25.7 °F 21.5 °F 23.0 °F 89% 30.34 in 10.0 mi West 3.5 mph - N/A   Overcast
8:15 AM 26.6 °F 22.6 °F 23.5 °F 88% 30.36 in 10.0 mi West 3.5 mph - N/A   Overcast
8:35 AM 27.3 °F 20.9 °F 23.5 °F 86% 30.36 in 10.0 mi WNW 5.8 mph - N/A   Overcast
8:55 AM 28.8 °F 25.0 °F 23.7 °F 81% 30.36 in 10.0 mi WNW 3.5 mph - N/A   Scattered Clouds
9:15 AM 29.3 °F 24.3 °F 23.5 °F 79% 30.37 in 10.0 mi West 4.6 mph - N/A   Clear
9:35 AM 30.2 °F 25.4 °F 23.7 °F 77% 30.38 in 10.0 mi West 4.6 mph - N/A   Clear
9:55 AM 30.2 °F 26.7 °F 23.5 °F 76% 30.38 in 10.0 mi WNW 3.5 mph - N/A   Mostly Cloudy
10:15 AM 31.5 °F 26.8 °F 24.1 °F 74% 30.39 in 10.0 mi West 4.6 mph - N/A   Mostly Cloudy
10:35 AM 32.0 °F - 24.4 °F 74% 30.38 in 10.0 mi Calm Calm - N/A   Mostly Cloudy
10:55 AM 32.4 °F 27.9 °F 25.0 °F 74% 30.37 in 10.0 mi SW 4.6 mph - N/A   Clear
11:15 AM 33.4 °F 28.1 °F 25.3 °F 72% 30.37 in 10.0 mi SSW 5.8 mph - N/A   Clear
11:35 AM 34.0 °F 28.8 °F 24.4 °F 68% 30.36 in 10.0 mi SW 5.8 mph - N/A   Clear
11:55 AM 34.5 °F 30.4 °F 25.2 °F 69% 30.35 in 10.0 mi SW 4.6 mph - N/A   Clear
12:15 PM 35.1 °F 30.1 °F 25.7 °F 69% 30.34 in 10.0 mi SW 5.8 mph - N/A   Clear
12:35 PM 35.6 °F 31.7 °F 25.5 °F 67% 30.33 in 10.0 mi SSW 4.6 mph - N/A   Clear
12:55 PM 36.7 °F 30.5 °F 26.8 °F 67% 30.32 in 10.0 mi SSW 8.1 mph - N/A   Clear
1:15 PM 37.2 °F 31.9 °F 26.1 °F 64% 30.32 in 10.0 mi South 6.9 mph - N/A   Clear
1:35 PM 37.4 °F 31.4 °F 26.2 °F 64% 30.31 in 10.0 mi SSW 8.1 mph - N/A   Clear
1:55 PM 37.4 °F 31.4 °F 26.6 °F 65% 30.31 in 10.0 mi South 8.1 mph - N/A   Clear
2:15 PM 38.1 °F 31.7 °F 27.3 °F 65% 30.31 in 10.0 mi SSW 9.2 mph - N/A   Clear
2:35 PM 36.5 °F 29.2 °F 26.2 °F 66% 30.31 in 10.0 mi South 10.4 mph - N/A   Mostly Cloudy
2:55 PM 36.5 °F 31.0 °F 26.4 °F 67% 30.31 in 10.0 mi SSW 6.9 mph - N/A   Overcast
3:15 PM 36.0 °F 29.6 °F 26.4 °F 68% 30.31 in 10.0 mi South 8.1 mph - N/A   Overcast
3:35 PM 35.6 °F 29.2 °F 26.6 °F 70% 30.31 in 10.0 mi South 8.1 mph - N/A   Overcast
3:55 PM 35.6 °F 29.2 °F 27.0 °F 71% 30.30 in 10.0 mi South 8.1 mph - N/A   Overcast
4:15 PM 34.7 °F 28.1 °F 27.1 °F 74% 30.30 in 10.0 mi South 8.1 mph - N/A   Overcast
4:35 PM 34.5 °F 27.9 °F 27.1 °F 74% 30.30 in 10.0 mi South 8.1 mph - N/A   Overcast
4:55 PM 34.0 °F 26.6 °F 27.5 °F 77% 30.30 in 10.0 mi South 9.2 mph - N/A   Overcast
5:15 PM 33.8 °F 25.8 °F 27.1 °F 77% 30.30 in 10.0 mi South 10.4 mph - N/A   Scattered Clouds
5:35 PM 33.3 °F 27.1 °F 27.3 °F 79% 30.29 in 10.0 mi South 6.9 mph - N/A   Clear
5:55 PM 33.1 °F 25.5 °F 27.1 °F 79% 30.29 in 10.0 mi South 9.2 mph - N/A   Clear
6:15 PM 33.4 °F 24.8 °F 26.6 °F 76% 30.29 in 10.0 mi South 11.5 mph - N/A   Clear
6:35 PM 32.9 °F 25.3 °F 26.6 °F 78% 30.28 in 10.0 mi South 9.2 mph - N/A   Scattered Clouds
6:55 PM 33.1 °F 24.4 °F 26.4 °F 77% 30.28 in 10.0 mi South 11.5 mph - N/A   Mostly Cloudy
7:15 PM 32.5 °F 23.7 °F 26.2 °F 78% 30.27 in 10.0 mi South 11.5 mph - N/A   Scattered Clouds
7:35 PM 32.9 °F 24.1 °F 26.4 °F 77% 30.27 in 10.0 mi South 11.5 mph 17.3 mph N/A   Scattered Clouds
7:55 PM 33.1 °F 24.9 °F 25.9 °F 75% 30.28 in 10.0 mi South 10.4 mph - N/A   Scattered Clouds
8:15 PM 32.9 °F 23.7 °F 25.9 °F 75% 30.28 in 10.0 mi South 12.7 mph 17.3 mph N/A   Clear
8:35 PM 32.5 °F 22.7 °F 26.1 °F 77% 30.28 in 10.0 mi South 13.8 mph 19.6 mph N/A   Clear
8:55 PM 32.4 °F 23.0 °F 26.2 °F 78% 30.29 in 10.0 mi South 12.7 mph - N/A   Clear
9:15 PM 32.0 °F 23.0 °F 26.2 °F 79% 30.30 in 10.0 mi SSW 11.5 mph - N/A   Clear
9:35 PM 32.2 °F 22.7 °F 26.2 °F 79% 30.30 in 10.0 mi SSW 12.7 mph - N/A   Scattered Clouds
9:55 PM 32.2 °F 22.3 °F 26.6 °F 80% 30.30 in 10.0 mi SSW 13.8 mph - N/A   Scattered Clouds
10:15 PM 32.9 °F 23.2 °F 27.0 °F 79% 30.30 in 10.0 mi SSW 13.8 mph - N/A   Clear
10:35 PM 33.8 °F 23.2 °F 26.4 °F 74% 30.30 in 10.0 mi SSW 17.3 mph 23.0 mph N/A   Mostly Cloudy
10:55 PM 33.8 °F 23.9 °F 26.4 °F 74% 30.30 in 10.0 mi SSW 15.0 mph - N/A   Scattered Clouds
11:15 PM 33.1 °F 23.0 °F 26.6 °F 77% 30.30 in 10.0 mi SSW 15.0 mph - N/A   Scattered Clouds
11:35 PM 32.9 °F 22.8 °F 26.8 °F 78% 30.30 in 10.0 mi SSW 15.0 mph - N/A   Clear
11:55 PM 32.5 °F 22.3 °F 27.0 °F 80% 30.30 in 10.0 mi SSW 15.0 mph - N/A   Clear